Location: ??
(35.3149°N, 139.6204°E)
Time: 10:15:39
(UTC+00:00)

SL-16 R/B - Pass Details

Date: 03 August 2024
Orbit: 842 x 845 km, 71.0° (Epoch: 10 September)

Event Time Altitude Azimuth Distance (km) Brightness Sun altitude
Exits shadow 16:11:08 45° 3° (N) 1,144 3.1 -33.8°
Drops below altitude 10° 16:15:01 10° 17° (NNE) 2,468 5.4 -33.5°
Sets 16:17:30 0° 20° (NNE) 3,407 6.4 -33.3°
